Hourly Weather Barkowo

Today, 29 September, Tuesday

Time Temperature Precipitation Wind Pressure Humidity
00:00 +12°C° 0 mm 1 mps 751 mmHg 92%
01:00 +12°C° 0 mm 1 mps 751 mmHg 92%
02:00 +12°C° 0.5 mm 2 mps 751 mmHg 93%
03:00 +12°C° 0.5 mm 2 mps 751 mmHg 94%
04:00 +12°C° 0.5 mm 2 mps 751 mmHg 95%
05:00 +12°C° 0.4 mm 2 mps 751 mmHg 95%
06:00 +12°C° 0.4 mm 2 mps 752 mmHg 94%
07:00 +12°C° 0.4 mm 2 mps 752 mmHg 93%
08:00 +13°C° 0.1 mm 2 mps 752 mmHg 90%
09:00 +13°C° 0.1 mm 2 mps 752 mmHg 87%
10:00 +13°C° 0.1 mm 3 mps 752 mmHg 83%
11:00 +14°C° 0 mm 3 mps 753 mmHg 79%
12:00 +16°C° 0 mm 3 mps 753 mmHg 75%
13:00 +17°C° 0 mm 3 mps 753 mmHg 72%
14:00 +16°C° 0 mm 3 mps 753 mmHg 73%
15:00 +16°C° 0 mm 3 mps 753 mmHg 75%
16:00 +15°C° 0 mm 2 mps 753 mmHg 77%
17:00 +15°C° 0.1 mm 2 mps 753 mmHg 80%
18:00 +14°C° 0.1 mm 2 mps 753 mmHg 83%
19:00 +14°C° 0.1 mm 2 mps 754 mmHg 87%
20:00 +13°C° 0 mm 2 mps 754 mmHg 88%
21:00 +13°C° 0 mm 2 mps 754 mmHg 90%
22:00 +12°C° 0 mm 3 mps 754 mmHg 91%
23:00 +13°C° 0 mm 2 mps 754 mmHg 91%

Tomorrow, 30 September, Wednesday

Time Temperature Precipitation Wind Pressure Humidity
00:00 +12°C° 0 mm 2 mps 754 mmHg 91%
01:00 +12°C° 0 mm 2 mps 754 mmHg 91%
02:00 +12°C° 0 mm 2 mps 753 mmHg 91%
03:00 +12°C° 0 mm 2 mps 753 mmHg 91%
04:00 +10°C° 0 mm 2 mps 753 mmHg 91%
05:00 +12°C° 0 mm 2 mps 753 mmHg 90%
06:00 +12°C° 0 mm 2 mps 753 mmHg 88%
07:00 +12°C° 0 mm 2 mps 753 mmHg 87%
08:00 +13°C° 0 mm 3 mps 753 mmHg 83%
09:00 +14°C° 0 mm 3 mps 753 mmHg 79%
10:00 +16°C° 0 mm 3 mps 753 mmHg 75%
11:00 +17°C° 0 mm 3 mps 753 mmHg 73%
12:00 +17°C° 0 mm 3 mps 752 mmHg 70%
13:00 +18°C° 0 mm 3 mps 752 mmHg 68%
14:00 +18°C° 0 mm 3 mps 752 mmHg 68%
15:00 +18°C° 0 mm 3 mps 751 mmHg 69%
16:00 +18°C° 0 mm 3 mps 751 mmHg 69%
17:00 +17°C° 0 mm 3 mps 751 mmHg 73%
18:00 +16°C° 0 mm 3 mps 751 mmHg 77%
19:00 +14°C° 0 mm 3 mps 751 mmHg 80%
20:00 +14°C° 0 mm 3 mps 751 mmHg 78%
21:00 +14°C° 0 mm 3 mps 751 mmHg 76%
22:00 +14°C° 0 mm 2 mps 751 mmHg 74%
23:00 +14°C° 0 mm 2 mps 750 mmHg 76%

Day after tomorrow, 1 October, Thursday

Time Temperature Precipitation Wind Pressure Humidity
00:00 +14°C° 0 mm 2 mps 750 mmHg 77%
01:00 +14°C° 0 mm 2 mps 750 mmHg 79%
02:00 +14°C° 0 mm 2 mps 749 mmHg 80%
03:00 +13°C° 0 mm 2 mps 749 mmHg 82%
04:00 +13°C° 0 mm 2 mps 749 mmHg 83%
05:00 +13°C° 0 mm 2 mps 749 mmHg 84%
06:00 +13°C° 0 mm 2 mps 748 mmHg 85%
07:00 +13°C° 0 mm 2 mps 748 mmHg 87%
08:00 +14°C° 0 mm 2 mps 748 mmHg 82%
09:00 +15°C° 0 mm 2 mps 748 mmHg 77%
10:00 +16°C° 0 mm 2 mps 747 mmHg 72%
11:00 +17°C° 0 mm 2 mps 747 mmHg 67%
12:00 +18°C° 0 mm 2 mps 747 mmHg 61%
13:00 +19°C° 0 mm 2 mps 747 mmHg 55%
14:00 +19°C° 0 mm 2 mps 746 mmHg 56%
15:00 +19°C° 0 mm 2 mps 746 mmHg 57%
16:00 +18°C° 0 mm 3 mps 746 mmHg 58%
17:00 +17°C° 0 mm 3 mps 746 mmHg 64%
18:00 +14°C° 0 mm 3 mps 747 mmHg 70%
19:00 +13°C° 0 mm 3 mps 747 mmHg 76%
20:00 +12°C° 0 mm 3 mps 747 mmHg 79%
21:00 +12°C° 0 mm 3 mps 747 mmHg 82%
22:00 +12°C° 0 mm 2 mps 747 mmHg 85%
23:00 +12°C° 0 mm 2 mps 746 mmHg 88%

2 October, Friday

Time Temperature Precipitation Wind Pressure Humidity
00:00 +10°C° 0 mm 2 mps 746 mmHg 91%
01:00 +10°C° 0 mm 2 mps 746 mmHg 95%
02:00 +10°C° 0 mm 2 mps 746 mmHg 95%
03:00 +10°C° 0 mm 2 mps 746 mmHg 95%
04:00 +10°C° 0 mm 2 mps 746 mmHg 96%
05:00 +12°C° 0 mm 2 mps 746 mmHg 95%
06:00 +11°C° 0 mm 3 mps 746 mmHg 94%
07:00 +11°C° 0 mm 3 mps 746 mmHg 93%
08:00 +13°C° 0 mm 3 mps 746 mmHg 87%
09:00 +14°C° 0 mm 3 mps 746 mmHg 81%
10:00 +15°C° 0 mm 4 mps 746 mmHg 75%
11:00 +17°C° 0 mm 4 mps 746 mmHg 73%
12:00 +17°C° 0 mm 4 mps 746 mmHg 71%
13:00 +17°C° 0 mm 4 mps 746 mmHg 69%
14:00 +17°C° 0 mm 4 mps 746 mmHg 68%
15:00 +17°C° 0 mm 4 mps 746 mmHg 68%
16:00 +18°C° 0 mm 4 mps 746 mmHg 68%
17:00 +15°C° 0 mm 4 mps 746 mmHg 73%
18:00 +14°C° 0 mm 4 mps 746 mmHg 78%
19:00 +13°C° 0 mm 4 mps 747 mmHg 83%
20:00 +13°C° 0 mm 4 mps 746 mmHg 83%
21:00 +13°C° 0 mm 4 mps 746 mmHg 84%
22:00 +13°C° 0 mm 5 mps 746 mmHg 85%
23:00 +13°C° 0 mm 5 mps 746 mmHg 85%

3 October, Saturday

Time Temperature Precipitation Wind Pressure Humidity
00:00 +13°C° 0 mm 5 mps 745 mmHg 86%
01:00 +13°C° 0 mm 5 mps 745 mmHg 86%
02:00 +13°C° 0 mm 5 mps 745 mmHg 86%
03:00 +13°C° 0 mm 4 mps 744 mmHg 85%
04:00 +13°C° 0 mm 4 mps 744 mmHg 85%
05:00 +13°C° 0 mm 4 mps 744 mmHg 84%
06:00 +14°C° 0 mm 4 mps 744 mmHg 83%
07:00 +14°C° 0 mm 4 mps 743 mmHg 82%
08:00 +15°C° 0 mm 4 mps 743 mmHg 77%
09:00 +17°C° 0 mm 5 mps 743 mmHg 72%
10:00 +19°C° 0 mm 5 mps 743 mmHg 67%
11:00 +20°C° 0 mm 5 mps 743 mmHg 65%
12:00 +21°C° 0 mm 5 mps 743 mmHg 63%
13:00 +22°C° 0 mm 6 mps 743 mmHg 61%
14:00 +22°C° 0 mm 5 mps 743 mmHg 62%
15:00 +22°C° 0 mm 4 mps 742 mmHg 63%
16:00 +22°C° 0 mm 4 mps 742 mmHg 64%
17:00 +20°C° 0 mm 4 mps 742 mmHg 67%
18:00 +19°C° 0 mm 5 mps 742 mmHg 71%
19:00 +17°C° 0 mm 5 mps 742 mmHg 74%
20:00 +17°C° 0 mm 5 mps 742 mmHg 76%
21:00 +18°C° 0 mm 4 mps 742 mmHg 77%
22:00 +17°C° 0 mm 4 mps 741 mmHg 79%
23:00 +17°C° 0 mm 4 mps 741 mmHg 80%

4 October, Sunday

Time Temperature Precipitation Wind Pressure Humidity
00:00 +17°C° 0 mm 4 mps 741 mmHg 82%
01:00 +17°C° 0 mm 4 mps 741 mmHg 83%
02:00 +17°C° 0 mm 4 mps 740 mmHg 82%
03:00 +17°C° 0 mm 4 mps 740 mmHg 81%
04:00 +18°C° 0 mm 4 mps 739 mmHg 80%
05:00 +18°C° 0 mm 4 mps 739 mmHg 79%
06:00 +18°C° 0 mm 4 mps 739 mmHg 77%
07:00 +19°C° 0 mm 4 mps 739 mmHg 75%
08:00 +19°C° 0 mm 5 mps 740 mmHg 73%
09:00 +20°C° 0 mm 5 mps 740 mmHg 71%
10:00 +20°C° 0 mm 5 mps 740 mmHg 69%
11:00 +20°C° 0 mm 4 mps 741 mmHg 68%
12:00 +20°C° 0 mm 4 mps 741 mmHg 66%
13:00 +19°C° 0 mm 3 mps 741 mmHg 65%
14:00 +19°C° 0 mm 3 mps 741 mmHg 65%
15:00 +19°C° 0 mm 2 mps 741 mmHg 65%
16:00 +19°C° 0 mm 2 mps 741 mmHg 64%
17:00 +18°C° 0.6 mm 2 mps 741 mmHg 71%
18:00 +17°C° 0.6 mm 2 mps 741 mmHg 78%
19:00 +16°C° 0.6 mm 2 mps 741 mmHg 84%
20:00 +16°C° 1.3 mm 3 mps 742 mmHg 87%
21:00 +15°C° 1.3 mm 4 mps 742 mmHg 89%
22:00 +14°C° 1.3 mm 4 mps 742 mmHg 92%
23:00 +14°C° 0 mm 4 mps 743 mmHg 93%
Show more